DW2685 Weather Reports


time (UTC)temp
F
wind
direction
speed
knots
gust
knots
rain 1hr
in
rain 24hr
in
rain mn
in
humidity
%
barometer
mb
20260508165033 67 261 0.9 3.5 0.00 0.96 0.01 51 1018.4
20260508164537 70 71 0.0 3.5 0.00 0.96 0.01 50 1018.4
20260508164026 69 65 0.9 2.6 0.00 0.96 0.01 51 1018.5
20260508163525 69 249 0.9 2.6 0.00 0.96 0.01 54 1018.5
20260508163024 68 219 0.0 6.1 0.00 0.96 0.01 57 1018.6
20260508162524 66 238 1.7 6.1 0.00 0.96 0.01 58 1018.6
20260508162027 68 225 0.0 1.7 0.00 0.96 0.01 52 1018.6
20260508161522 68 93 0.0 1.7 0.00 0.96 0.01 55 1018.7
20260508161021 68 307 0.0 2.6 0.00 0.96 0.01 59 1018.8
20260508160519 67 307 0.0 2.6 0.00 0.96 0.01 58 1018.8
20260508160033 67 15 0.0 0.9 0.01 0.96 0.01 54 1018.9
20260508155516 67 167 0.0 0.0 0.01 0.96 0.01 68 1019.0
20260508155015 67 166 0.0 0.0 0.01 0.96 0.01 61 1019.0
20260508154514 65 162 0.0 1.7 0.01 0.96 0.01 59 1019.0
20260508154015 65 92 0.0 6.1 0.01 0.96 0.01 58 1019.1
20260508153511 65 91 0.9 6.1 0.01 0.96 0.01 58 1019.1
20260508153010 65 194 0.0 3.5 0.01 0.96 0.01 64 1019.1
20260508152509 66 331 0.0 2.6 0.01 0.96 0.01 60 1019.1
20260508152006 64 109 0.0 1.7 0.01 0.96 0.01 66 1019.1
20260508151505 64 107 0.9 2.6 0.01 0.96 0.01 64 1019.0
20260508151006 65 20 0.0 3.5 0.01 0.96 0.01 65 1019.0
20260508150502 64 99 0.0 3.5 0.00 0.95 0.00 72 1019.0
20260508150001 63 71 0.0 0.0 0.00 0.97 0.00 67 1019.0
20260508145600 63 71 0.0 0.0 0.00 0.97 0.00 68 1019.0
20260508145058 63 51 0.0 0.0 0.00 0.97 0.00 60 1019.0
20260508144600 64 313 0.0 0.0 0.00 0.97 0.00 73 1019.0
20260508144055 64 47 0.0 0.0 0.00 0.97 0.00 75 1019.1
20260508143554 64 42 0.0 0.0 0.00 0.97 0.00 76 1019.0
20260508143057 62 37 0.0 0.0 0.00 0.97 0.00 78 1019.0
20260508142551 61 39 0.0 2.6 0.00 0.97 0.00 75 1019.1
20260508142050 61 38 0.0 6.1 0.00 0.97 0.00 70 1019.1
20260508141558 61 85 0.9 6.1 0.00 0.97 0.00 76 1019.2
20260508141048 61 91 0.0 1.7 0.00 0.97 0.00 82 1019.2
20260508140550 60 88 0.0 1.7 0.00 0.97 0.00 77 1019.2
20260508140053 60 61 0.0 1.7 0.00 0.99 0.00 82 1019.2
20260508135543 60 53 0.0 1.7 0.00 0.99 0.00 86 1019.3
20260508135042 59 148 0.0 0.0 0.00 0.99 0.00 86 1019.3
20260508134541 58 148 0.0 0.0 0.00 0.99 0.00 88 1019.1
20260508134039 58 148 0.0 0.0 0.00 0.99 0.00 91 1019.1
20260508133538 57 171 0.0 0.0 0.00 0.99 0.00 94 1019.1
20260508133038 55 171 0.0 0.0 0.00 0.99 0.00 95 1019.0
20260508132538 54 171 0.0 0.0 0.00 0.99 0.00 96 1018.9
20260508132036 54 173 0.0 0.0 0.00 0.99 0.00 97 1019.0
20260508131536 54 173 0.0 1.7 0.00 0.99 0.00 97 1019.0
20260508131035 54 173 0.0 1.7 0.00 0.99 0.00 97 1019.0
20260508130534 54 173 0.0 0.9 0.00 0.99 0.00 97 1019.0
20260508130034 54 173 0.0 0.9 0.00 1.40 0.00 97 1019.0
20260508125533 54 173 0.0 0.9 0.00 1.40 0.00 97 1018.9
20260508125032 54 171 0.0 1.7 0.00 1.40 0.00 98 1018.9
20260508124532 54 138 0.0 1.7 0.00 1.40 0.00 98 1018.8
20260508124031 54 53 0.0 0.9 0.00 1.40 0.00 98 1018.7
20260508123530 53 88 0.0 0.0 0.00 1.40 0.00 98 1018.7
20260508123031 53 88 0.0 0.0 0.00 1.40 0.00 98 1018.6
20260508122527 52 88 0.0 0.0 0.00 1.40 0.00 98 1018.6
20260508122027 52 88 0.0 0.0 0.00 1.40 0.00 98 1018.3
20260508121527 52 87 0.0 0.0 0.00 1.40 0.00 98 1018.3
20260508121027 52 87 0.0 0.0 0.00 1.40 0.00 98 1018.3
20260508120525 51 87 0.0 0.0 0.00 1.40 0.00 98 1018.2
20260508120035 51 88 0.0 0.0 0.00 1.40 0.00 98 1018.2
20260508115525 51 88 0.0 0.0 0.00 1.40 0.00 97 1018.1
20260508115024 51 88 0.0 0.0 0.00 1.40 0.00 97 1018.0
20260508114522 51 88 0.0 0.0 0.00 1.40 0.00 97 1017.9
20260508114022 51 87 0.0 0.0 0.00 1.40 0.00 98 1017.8
20260508113521 51 88 0.0 0.0 0.00 1.40 0.00 98 1017.7
20260508113020 50 88 0.0 0.0 0.00 1.40 0.00 97 1017.6
20260508112518 50 88 0.0 0.0 0.00 1.40 0.00 97 1017.6
20260508112017 50 87 0.0 0.0 0.00 1.40 0.00 97 1017.5
20260508111517 50 87 0.0 0.0 0.00 1.40 0.00 97 1017.5
20260508111017 49 88 0.0 0.0 0.00 1.40 0.00 97 1017.4
20260508110517 49 88 0.0 0.0 0.00 1.40 0.00 97 1017.4
20260508110013 49 88 0.0 0.0 0.00 1.41 0.00 97 1017.2
20260508105514 49 88 0.0 0.0 0.00 1.41 0.00 97 1017.2
20260508105012 49 88 0.0 0.0 0.00 1.41 0.00 97 1017.2
20260508104512 50 88 0.0 0.0 0.00 1.41 0.00 97 1017.2
20260508104009 50 87 0.0 0.0 0.00 1.41 0.00 97 1016.9
20260508103509 50 88 0.0 0.0 0.00 1.41 0.00 97 1016.8
20260508103024 50 88 0.0 0.0 0.00 1.41 0.00 97 1016.7
20260508102507 50 88 0.0 0.0 0.00 1.41 0.00 97 1016.6
20260508102007 50 88 0.0 0.0 0.00 1.41 0.00 97 1016.4
20260508101514 50 88 0.0 0.0 0.00 1.41 0.00 97 1016.3
20260508101005 50 88 0.0 0.0 0.00 1.41 0.00 97 1016.2
20260508100506 50 88 0.0 0.0 0.00 1.41 0.00 97 1016.2
20260508100006 50 88 0.0 0.0 0.00 1.45 0.00 97 1016.1
20260508095504 50 88 0.0 0.0 0.00 1.45 0.00 97 1016.2
20260508095006 50 88 0.0 0.0 0.00 1.45 0.00 97 1016.1
20260508094620 50 88 0.0 0.0 0.00 1.45 0.00 97 1016.1
20260508094001 50 88 0.0 0.0 0.00 1.45 0.00 97 1016.0
20260508093503 50 88 0.0 0.0 0.00 1.45 0.00 97 1016.0
20260508093000 50 88 0.0 0.0 0.00 1.45 0.00 97 1016.0
20260508092500 50 88 0.0 0.0 0.00 1.45 0.00 97 1016.1
20260508092101 50 88 0.0 0.0 0.00 1.45 0.00 96 1016.1
20260508091601 50 88 0.0 0.0 0.00 1.45 0.00 96 1016.1
20260508091059 50 88 0.0 0.0 0.00 1.45 0.00 96 1015.8
20260508090559 51 88 0.0 0.0 0.00 1.45 0.00 96 1015.8
20260508090118 51 88 0.0 0.0 0.00 1.51 0.00 96 1015.8
20260508085557 51 88 0.0 0.0 0.00 1.51 0.00 96 1015.8
20260508085056 51 88 0.0 0.0 0.00 1.51 0.00 96 1015.8
20260508084555 51 88 0.0 0.0 0.00 1.51 0.00 96 1015.8
20260508084054 51 88 0.0 0.0 0.00 1.51 0.00 96 1015.8
20260508083557 51 88 0.0 0.0 0.00 1.51 0.00 96 1015.6
20260508083111 52 88 0.0 0.0 0.00 1.51 0.00 96 1015.7
20260508082553 52 88 0.0 0.0 0.00 1.51 0.00 96 1015.6
20260508082052 52 88 0.0 0.0 0.00 1.51 0.00 96 1015.6
20260508081552 52 88 0.0 0.0 0.00 1.51 0.00 96 1015.5
20260508081050 52 88 0.0 0.0 0.00 1.51 0.00 96 1015.3
20260508080550 52 88 0.0 0.0 0.00 1.51 0.00 96 1015.4
20260508080051 52 88 0.0 0.0 0.00 1.79 0.00 96 1015.3
20260508075549 52 88 0.0 0.0 0.00 1.79 0.00 96 1015.2
20260508075048 53 88 0.0 0.0 0.00 1.79 0.00 96 1015.2
20260508074552 53 88 0.0 0.0 0.00 1.79 0.00 96 1015.3
20260508074050 53 88 0.0 0.0 0.00 1.79 0.00 96 1015.3
20260508073547 53 88 0.0 0.0 0.00 1.79 0.00 96 1015.2
20260508073049 53 88 0.0 0.0 0.00 1.79 0.00 96 1015.2
20260508072546 53 88 0.0 0.0 0.00 1.79 0.00 96 1015.1
20260508072048 53 88 0.0 0.0 0.00 1.79 0.00 96 1015.1
20260508071545 53 88 0.0 0.0 0.00 1.79 0.00 96 1015.0
20260508071044 53 88 0.0 0.0 0.00 1.79 0.00 96 1015.1
20260508070544 54 88 0.0 0.0 0.00 1.79 0.00 96 1015.1
20260508070044 54 88 0.0 0.0 0.00 2.12 0.00 96 1015.0
20260508065543 54 88 0.0 0.0 0.00 2.12 0.00 96 1015.0
20260508065042 54 88 0.0 0.0 0.00 2.12 0.00 96 1015.0
20260508064551 54 88 0.0 0.0 0.00 2.12 0.00 96 1015.0
20260508064040 54 88 0.0 0.0 0.00 2.12 0.00 96 1015.0
20260508063540 54 88 0.0 0.0 0.00 2.12 0.00 97 1015.0
20260508063039 55 88 0.0 0.0 0.00 2.12 0.00 97 1015.0
20260508062539 55 88 0.0 0.0 0.00 2.12 0.00 97 1015.1
20260508062038 55 88 0.0 0.0 0.00 2.12 0.00 97 1015.1
20260508061641 55 88 0.0 0.0 0.00 2.12 0.00 96 1015.2
20260508061038 55 88 0.0 0.0 0.00 2.12 0.00 96 1015.2
20260508060537 55 88 0.0 0.0 0.00 2.12 0.00 96 1015.2
20260508060036 55 88 0.0 0.0 0.00 2.12 0.00 96 1015.2
20260508055536 55 88 0.0 0.0 0.00 2.12 0.00 97 1015.2
20260508055036 55 88 0.0 0.0 0.00 2.12 0.00 97 1015.2
20260508054536 55 88 0.0 0.0 0.00 2.12 0.00 97 1015.2
20260508054035 55 88 0.0 0.0 0.00 2.12 0.00 97 1015.2
20260508053533 55 88 0.0 0.0 0.00 2.12 0.00 96 1015.2
20260508053035 55 88 0.0 0.0 0.00 2.12 0.00 96 1015.2
20260508052533 55 87 0.0 0.0 0.00 2.12 0.00 96 1015.1
20260508052036 55 88 0.0 0.0 0.00 2.12 0.00 96 1015.0
20260508051531 55 87 0.0 0.0 0.00 2.12 0.00 96 1015.1
20260508051032 56 88 0.0 0.0 0.00 2.12 0.00 96 1014.9
20260508050531 56 88 0.0 0.0 0.00 2.12 0.00 96 1014.9
20260508050029 56 87 0.0 0.0 0.00 2.12 0.00 96 1014.9
20260508045528 56 88 0.0 0.0 0.00 2.12 0.00 96 1014.8
20260508045027 56 88 0.0 0.0 0.00 2.12 0.00 96 1014.8
20260508044527 56 87 0.0 0.0 0.00 2.12 0.00 96 1014.7
20260508044041 56 87 0.0 0.0 0.00 2.12 0.00 96 1014.6
20260508043525 56 88 0.0 0.0 0.00 2.12 0.00 96 1014.6
20260508043025 56 88 0.0 0.0 0.00 2.12 0.00 96 1014.5
20260508042525 56 88 0.0 0.0 0.00 2.12 0.00 97 1014.6
20260508042024 56 88 0.0 0.0 0.00 2.12 0.00 97 1014.6
20260508041524 56 88 0.0 0.0 0.00 2.12 0.00 97 1014.5
20260508041023 56 87 0.0 0.0 0.00 2.12 0.00 96 1014.4
20260508040523 56 88 0.0 0.0 0.00 2.12 0.00 96 1014.4
20260508040031 56 88 0.0 0.0 0.00 2.15 2.12 97 1014.4
20260508035522 56 88 0.0 0.0 0.00 2.15 2.12 96 1014.4
20260508035022 56 88 0.0 0.0 0.00 2.15 2.12 96 1014.5
20260508034527 56 88 0.0 0.0 0.00 2.15 2.12 96 1014.4
20260508034019 56 87 0.0 0.0 0.00 2.15 2.12 96 1014.3
20260508033519 56 88 0.0 0.0 0.00 2.15 2.12 96 1014.3
20260508033022 56 88 0.0 0.0 0.00 2.15 2.12 96 1014.3
20260508032519 57 88 0.0 0.0 0.00 2.15 2.12 96 1014.4
20260508032019 57 88 0.0 0.0 0.00 2.15 2.12 96 1014.4
20260508031526 57 88 0.0 0.0 0.00 2.15 2.12 96 1014.3
20260508031017 57 88 0.0 0.0 0.00 2.15 2.12 96 1014.3
20260508030518 57 88 0.0 0.0 0.00 2.15 2.12 96 1014.2
20260508030017 57 88 0.0 0.0 0.00 2.34 2.12 96 1014.2
20260508025517 57 88 0.0 0.0 0.00 2.34 2.12 96 1014.3
20260508025015 57 88 0.0 0.0 0.00 2.34 2.12 96 1014.1
20260508024515 57 87 0.0 0.0 0.00 2.34 2.12 96 1014.2
20260508024014 57 87 0.0 0.0 0.00 2.34 2.12 96 1014.1
20260508023514 57 88 0.0 0.0 0.00 2.34 2.12 96 1013.9
20260508023024 57 88 0.0 0.0 0.00 2.34 2.12 96 1013.8
20260508022512 57 87 0.0 0.0 0.00 2.34 2.12 96 1013.7
20260508022012 57 88 0.0 0.0 0.00 2.34 2.12 96 1013.6
20260508021514 58 88 0.0 0.0 0.00 2.34 2.12 96 1013.5
20260508021015 58 88 0.0 0.0 0.00 2.34 2.12 96 1013.5
20260508020510 58 88 0.0 0.0 0.00 2.34 2.12 96 1013.3
20260508020010 58 87 0.0 0.0 0.00 2.42 2.12 96 1013.2
20260508015509 58 88 0.0 0.0 0.00 2.42 2.12 96 1013.1
20260508015009 58 88 0.0 0.0 0.00 2.42 2.12 96 1013.0
20260508014520 58 88 0.0 0.0 0.00 2.42 2.12 96 1013.1
20260508014008 58 88 0.0 0.0 0.01 2.42 2.12 95 1012.9
20260508013508 58 87 0.0 0.0 0.01 2.42 2.12 96 1012.8
20260508013008 58 75 0.0 0.0 0.01 2.42 2.12 96 1012.7
20260508012508 58 76 0.0 1.7 0.01 2.42 2.12 95 1012.6
20260508012007 58 76 0.0 1.7 0.01 2.42 2.12 95 1012.5
20260508011507 58 76 0.0 0.9 0.01 2.42 2.12 95 1012.4
20260508011006 58 75 0.0 1.7 0.03 2.42 2.12 95 1012.5
20260508010505 59 77 0.0 1.7 0.10 2.42 2.12 95 1012.4
20260508010005 59 74 0.0 0.0 0.18 2.44 2.12 95 1012.3
20260508005508 59 74 0.0 0.9 0.27 2.44 2.12 95 1012.2
20260508005004 59 74 0.0 0.9 0.30 2.44 2.12 95 1012.2
20260508004513 59 74 0.0 1.7 0.31 2.43 2.11 95 1012.3
20260508004003 59 73 0.0 1.7 0.31 2.43 2.11 94 1012.1
20260508003503 59 73 0.0 1.7 0.31 2.43 2.11 94 1012.0
20260508003010 59 73 0.0 1.7 0.35 2.43 2.11 94 1011.8
20260508002502 59 84 0.0 3.5 0.43 2.43 2.11 94 1011.5
20260508002101 59 84 0.9 4.3 0.51 2.43 2.11 94 1011.4
20260508001601 60 57 0.9 4.3 0.60 2.43 2.11 94 1011.3
20260508001059 60 163 0.0 7.0 0.67 2.41 2.09 94 1011.2
20260508000559 60 163 0.9 7.0 0.71 2.35 2.02 93 1011.4
20260508000101 60 57 0.0 3.5 0.74 2.27 1.95 93 1010.9
20260507235600 61 203 0.9 3.5 0.70 2.19 1.87 93 1011.4
20260507235056 61 72 0.9 3.5 0.66 2.15 1.83 94 1010.7
20260507234556 61 186 0.0 2.6 0.63 2.12 1.80 93 1010.0
20260507234057 61 186 0.9 5.2 0.63 2.12 1.80 92 1010.0
20260507233554 61 68 1.7 5.2 0.63 2.12 1.80 92 1009.0
20260507233053 62 65 0.9 5.2 0.60 2.09 1.77 91 1009.2
20260507232552 62 322 0.9 4.3 0.52 2.00 1.69 90 1009.7
20260507232049 63 332 1.7 5.2 0.43 1.92 1.60 89 1008.8
20260507231549 64 20 0.9 7.8 0.34 1.83 1.51 87 1009.0
20260507231048 66 56 0.9 4.3 0.24 1.73 1.41 85 1008.7
20260507230548 68 327 1.7 8.7 0.14 1.63 1.31 83 1008.6
20260507230048 70 112 0.9 8.7 0.04 1.53 1.21 84 1008.9
20260507225547 71 301 0.9 3.5 0.00 1.49 1.17 82 1008.0
20260507225047 72 252 0.0 0.9 0.00 1.49 1.17 84 1007.9
20260507224602 73 252 0.0 0.9 0.00 1.49 1.17 83 1007.6
20260507224047 73 252 0.0 1.7 0.00 1.49 1.17 81 1007.8
20260507223546 73 252 0.0 1.7 0.00 1.49 1.17 81 1007.9
20260507223053 73 251 0.0 3.5 0.00 1.49 1.17 80 1007.8
20260507222545 74 252 0.9 3.5 0.00 1.49 1.17 80 1007.9
20260507222045 74 284 0.0 5.2 0.00 1.49 1.17 78 1007.8
20260507221545 74 259 0.9 5.2 0.00 1.49 1.17 77 1007.5
20260507221045 75 284 0.0 3.5 0.00 1.49 1.17 77 1007.5
20260507220546 75 77 0.0 7.0 0.00 1.49 1.17 77 1007.5
20260507220045 75 331 1.7 7.0 0.00 1.49 1.17 74 1007.4
20260507215548 76 199 0.0 5.2 0.00 1.49 1.17 75 1007.6
20260507215045 76 201 1.7 5.2 0.00 1.49 1.17 74 1007.5
20260507214547 77 200 0.9 4.3 0.00 1.49 1.17 74 1007.4
20260507214046 77 265 0.0 4.3 0.00 1.49 1.17 75 1007.5
20260507213544 76 278 0.0 5.2 0.00 1.49 1.17 75 1007.3
20260507213044 76 279 0.0 5.2 0.00 1.49 1.17 74 1007.4
20260507212543 76 220 0.9 4.3 0.00 1.49 1.17 73 1007.5
20260507212045 77 195 0.9 4.3 0.00 1.49 1.17 73 1007.6
20260507211559 77 225 0.0 4.3 0.00 1.49 1.17 74 1007.7
20260507211042 76 329 0.9 5.2 0.00 1.49 1.17 73 1007.7
20260507210543 77 251 1.7 5.2 0.00 1.49 1.17 72 1007.8
20260507210042 77 229 0.9 7.8 0.00 1.49 1.17 74 1007.6
20260507205542 77 209 2.6 6.1 0.00 1.49 1.17 72 1007.3
20260507205043 77 257 0.0 10.4 0.00 1.49 1.17 73 1007.3
20260507204540 76 288 3.5 10.4 0.00 1.49 1.17 72 1007.4
20260507204043 77 99 0.9 6.1 0.00 1.49 1.17 76 1007.5
20260507203539 77 242 0.0 1.7 0.00 1.49 1.17 74 1007.6
20260507203041 78 230 0.0 1.7 0.00 1.49 1.17 75 1007.6
20260507202537 78 243 0.0 8.7 0.00 1.49 1.17 72 1007.6
20260507202037 78 236 2.6 8.7 0.00 1.49 1.17 74 1007.8
20260507201537 78 311 0.0 4.3 0.00 1.49 1.17 73 1007.8
20260507201040 78 267 1.7 6.1 0.00 1.49 1.17 71 1007.8
20260507200536 78 122 0.9 6.1 0.00 1.49 1.17 70 1007.9
20260507200037 78 235 0.9 7.8 0.00 1.49 1.17 72 1008.0
20260507195534 79 204 0.0 2.6 0.00 1.49 1.17 70 1008.1
20260507195034 79 327 0.9 5.2 0.00 1.49 1.17 71 1007.9
20260507194537 78 215 0.9 5.2 0.00 1.49 1.17 71 1008.1
20260507194030 78 244 0.9 5.2 0.00 1.49 1.17 73 1008.3
20260507193530 77 242 0.9 2.6 0.00 1.49 1.17 74 1008.4
20260507193033 77 236 0.0 2.6 0.00 1.49 1.17 78 1008.4
20260507192526 76 203 0.9 4.3 0.00 1.49 1.17 79 1008.5
20260507192024 76 222 1.7 4.3 0.00 1.49 1.17 76 1008.6
20260507191523 75 199 0.9 2.6 0.00 1.49 1.17 77 1008.5
20260507191022 75 154 0.9 5.2 0.00 1.49 1.17 75 1008.7
20260507190523 75 252 0.0 5.2 0.00 1.49 1.17 76 1008.7
20260507190026 76 215 0.0 3.5 0.00 1.50 1.17 77 1008.6
20260507185520 76 341 0.9 3.5 0.00 1.50 1.17 78 1008.7
20260507185020 75 262 0.0 8.7 0.00 1.50 1.17 79 1008.6
20260507184520 75 232 0.9 8.7 0.00 1.50 1.17 79 1008.5
20260507184018 75 94 0.9 6.1 0.00 1.50 1.17 77 1008.5
20260507183515 75 229 0.0 3.5 0.00 1.50 1.17 81 1008.5
20260507183015 74 229 0.0 1.7 0.00 1.50 1.17 81 1008.5
20260507182514 74 229 0.0 6.1 0.00 1.50 1.17 84 1008.7
20260507182013 74 228 1.7 6.1 0.00 1.50 1.17 79 1008.5
20260507181512 73 189 0.0 4.3 0.00 1.50 1.17 86 1008.5
20260507181013 73 188 0.0 4.3 0.00 1.50 1.17 85 1008.4
20260507180511 73 169 1.7 4.3 0.00 1.50 1.17 83 1008.5
20260507180012 73 279 0.0 2.6 0.00 1.51 1.17 86 1008.7
20260507175509 72 26 0.9 4.3 0.00 1.51 1.17 88 1008.4
20260507175006 71 331 1.7 4.3 0.00 1.51 1.17 90 1008.7
20260507174505 70 159 0.0 3.5 0.00 1.51 1.17 92 1008.9
20260507174003 69 158 0.9 6.1 0.00 1.51 1.17 91 1008.8
20260507173504 69 331 0.9 6.1 0.00 1.51 1.17 93 1009.1
20260507173004 69 183 0.0 1.7 0.00 1.51 1.17 94 1009.3
20260507172502 69 209 0.0 4.3 0.00 1.51 1.17 93 1009.4
20260507172002 68 209 0.0 4.3 0.00 1.51 1.17 93 1009.5
20260507171502 68 241 0.9 5.2 0.00 1.51 1.17 93 1009.4
20260507171001 68 240 1.7 5.2 0.00 1.51 1.17 92 1009.2
20260507170501 68 217 0.0 3.5 0.00 1.51 1.17 93 1009.1
20260507170001 69 219 0.0 0.0 0.00 1.51 1.17 95 1009.2
20260507165501 68 22 0.0 1.7 0.00 1.51 1.17 95 1009.4